Location: Armidale
(30.5016°S, 151.6662°E)
Time: 03:47:24
(UTC+10:00)

CAS-4B - Visible Passes

Search period start: 31 July 2021 00:00
Search period end: 10 August 2021 00:00
Orbit: 530 x 540 km, 43.0° (Epoch: 30 July)

Date Brightness Start Highest point End Pass type
(mag) Time Alt. Az. Time Alt. Az. Time Alt. Az.
31 Jul ? 19:03:55 10° SW 19:06:08 21° S 19:06:08 21° S visible
01 Aug ? 18:53:04 10° SW 18:56:10 28° S 18:56:10 28° S visible
02 Aug ? 18:42:13 10° SW 18:46:03 34° SSE 18:46:18 34° SSE visible
03 Aug ? 18:31:23 10° SW 18:35:22 42° SSE 18:36:34 33° ESE visible
03 Aug ? 20:11:44 10° WSW 20:11:55 11° WSW 20:11:55 11° WSW visible
04 Aug ? 18:20:34 10° SW 18:24:39 53° SSE 18:27:00 23° E visible
04 Aug ? 20:01:16 10° W 20:02:22 15° W 20:02:22 15° W visible
05 Aug ? 18:09:46 10° SW 18:13:55 68° SSE 18:17:38 12° ENE visible
05 Aug ? 19:50:57 10° W 19:53:01 17° WNW 19:53:01 17° WNW visible
06 Aug ? 17:59:00 10° SW 18:03:10 88° SE 18:07:19 10° ENE visible
06 Aug ? 19:40:58 10° WNW 19:42:52 13° NW 19:43:55 12° NNW visible
07 Aug ? 17:48:15 10° WSW 17:52:24 71° NW 17:56:31 10° NE visible
